When you browse on this site, cookies collect data to enhance your experience and personalize the content and advertising you see.
Visit our Privacy Policy to learn more. By continuing to use the site, you agree to this use of cookies and data.
  • In Latvia
  • List of Countries
  • For 7 days
  • Water Temperature
  • Weather Map
  • Weather Widgets
  • user-avatar
    Login

    Hourly Weather Austin

    Today, 17 September, Tuesday

    Time Temperature Precipitation Wind Pressure Humidity
    00:00 +27°C° 0 mm 1 mps 743 mmHg 79%
    01:00 +27°C° 0 mm 1 mps 743 mmHg 80%
    02:00 +27°C° 0 mm 2 mps 742 mmHg 82%
    03:00 +26°C° 0 mm 2 mps 742 mmHg 82%
    04:00 +26°C° 0 mm 2 mps 742 mmHg 83%
    05:00 +26°C° 0 mm 1 mps 743 mmHg 82%
    06:00 +27°C° 0 mm 2 mps 743 mmHg 76%
    07:00 +28°C° 0 mm 2 mps 743 mmHg 70%
    08:00 +29°C° 0 mm 3 mps 744 mmHg 64%
    09:00 +30°C° 0 mm 3 mps 743 mmHg 61%
    10:00 +33°C° 0 mm 3 mps 743 mmHg 57%
    11:00 +34°C° 0 mm 4 mps 743 mmHg 54%
    12:00 +34°C° 0.3 mm 4 mps 742 mmHg 54%
    13:00 +34°C° 0.3 mm 3 mps 742 mmHg 55%
    14:00 +34°C° 0.3 mm 3 mps 741 mmHg 55%
    15:00 +33°C° 1.3 mm 3 mps 741 mmHg 60%
    16:00 +31°C° 1.3 mm 3 mps 741 mmHg 65%
    17:00 +30°C° 1.3 mm 3 mps 741 mmHg 70%
    18:00 +29°C° 0.1 mm 3 mps 741 mmHg 73%
    19:00 +28°C° 0.1 mm 2 mps 742 mmHg 75%
    20:00 +28°C° 0.1 mm 2 mps 742 mmHg 78%
    21:00 +27°C° 0 mm 2 mps 742 mmHg 79%
    22:00 +27°C° 0 mm 2 mps 742 mmHg 80%
    23:00 +27°C° 0 mm 2 mps 742 mmHg 82%

    Tomorrow, 18 September, Wednesday

    Time Temperature Precipitation Wind Pressure Humidity
    00:00 +26°C° 0 mm 2 mps 742 mmHg 83%
    01:00 +26°C° 0 mm 1 mps 741 mmHg 83%
    02:00 +25°C° 0 mm 1 mps 741 mmHg 84%
    03:00 +25°C° 0 mm 1 mps 741 mmHg 84%
    04:00 +25°C° 0 mm 1 mps 741 mmHg 84%
    05:00 +25°C° 0 mm 2 mps 741 mmHg 84%
    06:00 +26°C° 0 mm 2 mps 742 mmHg 79%
    07:00 +27°C° 0 mm 2 mps 742 mmHg 74%
    08:00 +29°C° 0 mm 3 mps 742 mmHg 69%
    09:00 +30°C° 0 mm 3 mps 742 mmHg 65%
    10:00 +31°C° 0 mm 3 mps 742 mmHg 61%
    11:00 +32°C° 0 mm 2 mps 742 mmHg 58%
    12:00 +32°C° 0 mm 2 mps 741 mmHg 55%
    13:00 +34°C° 0 mm 2 mps 741 mmHg 53%
    14:00 +34°C° 0 mm 2 mps 740 mmHg 51%
    15:00 +34°C° 0.1 mm 2 mps 740 mmHg 53%
    16:00 +34°C° 0.1 mm 2 mps 740 mmHg 55%
    17:00 +32°C° 0.1 mm 2 mps 740 mmHg 56%
    18:00 +31°C° 0.1 mm 2 mps 740 mmHg 60%
    19:00 +30°C° 0.1 mm 2 mps 741 mmHg 64%
    20:00 +29°C° 0.1 mm 3 mps 741 mmHg 68%
    21:00 +29°C° 0 mm 2 mps 741 mmHg 72%
    22:00 +28°C° 0 mm 2 mps 741 mmHg 76%
    23:00 +27°C° 0 mm 1 mps 741 mmHg 79%

    Day after tomorrow, 19 September, Thursday

    Time Temperature Precipitation Wind Pressure Humidity
    00:00 +27°C° 0 mm 1 mps 741 mmHg 80%
    01:00 +27°C° 0 mm 1 mps 741 mmHg 80%
    02:00 +25°C° 0 mm 0 mps 741 mmHg 80%
    03:00 +25°C° 0 mm 0 mps 741 mmHg 81%
    04:00 +24°C° 0 mm 0 mps 741 mmHg 81%
    05:00 +24°C° 0 mm 0 mps 741 mmHg 82%
    06:00 +26°C° 0 mm 0 mps 741 mmHg 76%
    07:00 +27°C° 0 mm 0 mps 742 mmHg 70%
    08:00 +28°C° 0 mm 0 mps 742 mmHg 64%
    09:00 +32°C° 0.5 mm 1 mps 742 mmHg 60%
    10:00 +33°C° 0.5 mm 1 mps 741 mmHg 55%
    11:00 +35°C° 0.5 mm 2 mps 741 mmHg 50%
    12:00 +36°C° 0.4 mm 2 mps 741 mmHg 48%
    13:00 +36°C° 0.4 mm 2 mps 740 mmHg 45%
    14:00 +37°C° 0.4 mm 2 mps 740 mmHg 43%
    15:00 +36°C° 0.2 mm 3 mps 740 mmHg 48%
    16:00 +34°C° 0.2 mm 3 mps 740 mmHg 54%
    17:00 +33°C° 0.2 mm 3 mps 740 mmHg 59%
    18:00 +31°C° 1 mm 3 mps 740 mmHg 65%
    19:00 +29°C° 1 mm 3 mps 741 mmHg 71%
    20:00 +28°C° 1 mm 3 mps 741 mmHg 77%
    21:00 +28°C° 0.1 mm 4 mps 741 mmHg 79%
    22:00 +28°C° 0.1 mm 4 mps 741 mmHg 80%
    23:00 +27°C° 0.1 mm 5 mps 741 mmHg 82%

    20 September, Friday

    Time Temperature Precipitation Wind Pressure Humidity
    00:00 +27°C° 0.4 mm 4 mps 741 mmHg 83%
    01:00 +27°C° 0.4 mm 4 mps 741 mmHg 85%
    02:00 +27°C° 0.4 mm 4 mps 742 mmHg 86%
    03:00 +27°C° 0.2 mm 4 mps 742 mmHg 87%
    04:00 +27°C° 0.2 mm 3 mps 742 mmHg 87%
    05:00 +26°C° 0.2 mm 3 mps 742 mmHg 87%
    06:00 +28°C° 0 mm 4 mps 742 mmHg 81%
    07:00 +29°C° 0 mm 5 mps 743 mmHg 75%
    08:00 +30°C° 0 mm 5 mps 743 mmHg 69%
    09:00 +33°C° 0 mm 5 mps 743 mmHg 63%
    10:00 +34°C° 0 mm 5 mps 743 mmHg 57%
    11:00 +35°C° 0 mm 5 mps 743 mmHg 52%
    12:00 +35°C° 0.3 mm 5 mps 742 mmHg 51%
    13:00 +36°C° 0.3 mm 5 mps 742 mmHg 50%
    14:00 +36°C° 0.3 mm 5 mps 742 mmHg 50%
    15:00 +35°C° 0.6 mm 6 mps 742 mmHg 56%
    16:00 +33°C° 0.6 mm 6 mps 742 mmHg 62%
    17:00 +32°C° 0.6 mm 6 mps 742 mmHg 68%
    18:00 +30°C° 0.4 mm 6 mps 742 mmHg 72%
    19:00 +29°C° 0.4 mm 6 mps 743 mmHg 76%
    20:00 +28°C° 0.4 mm 5 mps 744 mmHg 79%
    21:00 +28°C° 0 mm 5 mps 744 mmHg 82%
    22:00 +27°C° 0 mm 5 mps 744 mmHg 84%
    23:00 +27°C° 0 mm 5 mps 744 mmHg 86%

    21 September, Saturday

    Time Temperature Precipitation Wind Pressure Humidity
    00:00 +27°C° 0 mm 4 mps 744 mmHg 87%
    01:00 +26°C° 0 mm 4 mps 744 mmHg 88%
    02:00 +26°C° 0 mm 4 mps 744 mmHg 89%
    03:00 +26°C° 0 mm 4 mps 744 mmHg 90%
    04:00 +26°C° 0 mm 3 mps 744 mmHg 90%
    05:00 +26°C° 0 mm 3 mps 744 mmHg 90%
    06:00 +27°C° 0 mm 4 mps 744 mmHg 83%
    07:00 +28°C° 0 mm 4 mps 745 mmHg 76%
    08:00 +30°C° 0 mm 5 mps 745 mmHg 69%
    09:00 +32°C° 0 mm 5 mps 745 mmHg 64%
    10:00 +33°C° 0 mm 5 mps 744 mmHg 60%
    11:00 +34°C° 0 mm 5 mps 744 mmHg 55%
    12:00 +35°C° 0.1 mm 5 mps 744 mmHg 54%
    13:00 +35°C° 0.1 mm 5 mps 743 mmHg 53%
    14:00 +35°C° 0.1 mm 5 mps 742 mmHg 51%
    15:00 +34°C° 0.3 mm 5 mps 742 mmHg 56%
    16:00 +33°C° 0.3 mm 4 mps 743 mmHg 60%
    17:00 +32°C° 0.3 mm 4 mps 743 mmHg 64%
    18:00 +30°C° 0 mm 5 mps 743 mmHg 68%
    19:00 +29°C° 0 mm 5 mps 743 mmHg 71%
    20:00 +28°C° 0 mm 6 mps 744 mmHg 75%
    21:00 +28°C° 0 mm 5 mps 744 mmHg 78%
    22:00 +27°C° 0 mm 5 mps 744 mmHg 82%
    23:00 +27°C° 0 mm 4 mps 744 mmHg 86%

    22 September, Sunday

    Time Temperature Precipitation Wind Pressure Humidity
    00:00 +26°C° 0 mm 4 mps 744 mmHg 87%
    01:00 +26°C° 0 mm 3 mps 744 mmHg 89%
    02:00 +26°C° 0 mm 3 mps 744 mmHg 91%
    03:00 +26°C° 0 mm 3 mps 744 mmHg 92%
    04:00 +26°C° 0 mm 3 mps 744 mmHg 93%
    05:00 +25°C° 0 mm 3 mps 744 mmHg 94%
    06:00 +27°C° 0 mm 3 mps 744 mmHg 87%
    07:00 +28°C° 0 mm 4 mps 744 mmHg 81%
    08:00 +29°C° 0 mm 4 mps 745 mmHg 75%
    09:00 +30°C° 0 mm 4 mps 745 mmHg 69%
    10:00 +32°C° 0 mm 4 mps 744 mmHg 64%
    11:00 +33°C° 0 mm 4 mps 744 mmHg 59%
    12:00 +34°C° 0 mm 4 mps 743 mmHg 56%
    13:00 +34°C° 0 mm 4 mps 743 mmHg 54%
    14:00 +35°C° 0 mm 4 mps 742 mmHg 52%
    15:00 +34°C° 0 mm 4 mps 742 mmHg 55%
    16:00 +34°C° 0 mm 3 mps 742 mmHg 57%
    17:00 +33°C° 0 mm 3 mps 742 mmHg 60%
    18:00 +31°C° 0 mm 3 mps 742 mmHg 62%
    19:00 +30°C° 0 mm 3 mps 743 mmHg 64%
    20:00 +29°C° 0 mm 3 mps 743 mmHg 66%
    21:00 +29°C° 0 mm 3 mps 743 mmHg 71%
    22:00 +28°C° 0 mm 3 mps 743 mmHg 75%
    23:00 +27°C° 0 mm 4 mps 743 mmHg 79%
    Show more